STARLINK-32512, 62027

Orbit data source: Space-Track

STARLINK-32512, 62027 is a payload satellite owned by SpaceX/Seattle (US) in LEO that was launched on Mon, 18 Nov 2024 UTC via an FALCON 9 launch vehicle from the Air Force Western Test Range (AFWTR). Payload-class satellites include a variety of spacecraft equipped with specific instruments for various scientific and technological missions. These include communications satellites like Starlink; space stations such as the ISS; scientific satellites like the Hubble; Earth observation satellites from companies like Planet Labs, Umbra, and HawkEye 360; GPS; miniature CubeSats for education and research; and military/defense satellites.

Loading next visibility...
Identifier
62027, 2024-213V
Orbit
LEO
Country
Flag of USUS
Related business
Manufacturer
SpaceX/Seattle
Mission
Operational Commercial Communications
Bus & Motor
STARLINK V2M, Unknown motor
Mass
730 kg wet, ~700 kg dry
Launch date (UTC)
2024-11-18 (1 year ago)
Launch vehicle
FALCON 9
Launch site
Air Force Western Test Range (AFWTR)
Object type
Payload
Rocket body
Debris
Shape & HBR
Box + 2 Pan, 17.7 m
Radar Cross Section
33.884 m², Large (>1 m²)

Expand to show TLE details & history
Last TLE update: 22 hours ago

TLE from 22 hours ago
0 STARLINK-32512
1 62027U 24213V   25312.63428407  .00039291  00000-0  13324-2 0  9995
2 62027  53.1604  10.2049 0001158  75.1786 284.9343 15.30182197 54620
Epoch: 2025-11-08T15:13Z
TLE epoch observation values (Epoch: 2025-11-08T15:13:22.143Z)
Latitude
-0.00003°
Longitude
93.80153°
Altitude
475.964 km
Speed
7.629 km/s
True Right ascension
00h 40m 49s
True Declination
0° 00' 00"
Sunlit
Object was in full shadow at epoch
Visualization orbit readout
Latitude
Unknown
Longitude
Unknown
Altitude
Unknown
Speed
Unknown
Apparent Right ascension
Unknown
Apparent Declination
Unknown
Sunlit
N/A
Visualization observer readout
Local Sidereal Time
09:33:09
Azimuth
Unknown
Elevation
Unknown
Doppler factor
Unknown
Orbital elements
Apogee altitude
476.318 km
Perigee altitude
474.731 km
Semi-major axis
6,853.662 km
Eccentricity
0.00012
Inclination
53.1604°
RAAN
10.2049°
Arg. of periapsis
75.1786°
True anomaly
284.92148°
Mean anomaly
284.9343°
Eccentric anomaly
284.92789°
Mean motion
3.82524 °/min
Orbital period
94.11 mins
BSTAR
0.0013324
Loading maneuver chart data...
Computing Atmospheric mass density...
Loading historical data...
Loading historical data...
Loading historical data...
Loading historical data...
Loading historical data...
Loading historical data...
Loading historical data...

Documentation

Showing up to 5 results
|